This demonstration page uses our WeatherBlox Daily Observations layout. Learn more.

Left ArrowRight Arrow

Hourly Observations for May 29, 2022

Temp ( °F °C ) Dew Point ( °F °C ) Humidity (%) Winds ( mph kmh ) Pressure ( in mb ) Visibility ( mi km ) Precip ( " mm )
12:53 am 00:53 Cloudy 55 12.8 36 2.2 49 49 ESE 3 6 29.51 999 10 16 0.00 0.00
1:53 am 01:53 Cloudy 56 13.3 37 2.8 49 49 Calm 29.50 999 10 16 0.00 0.00
2:53 am 02:53 Cloudy 54 12.2 37 2.8 53 53 Calm 29.49 999 10 16 0.00 0.00
3:53 am 03:53 Cloudy 51 10.6 37 2.8 59 59 Calm 29.50 999 10 16 0.00 0.00
4:53 am 04:53 Cloudy 50 10 37 2.8 61 61 NW 5 7 29.51 999 10 16 0.00 0.00
5:53 am 05:53 Cloudy 51 10.6 38 3.3 61 61 Calm 29.52 1000 10 16 0.00 0.00
6:53 am 06:53 Cloudy 54 12.2 39 3.9 57 57 Calm 29.53 1000 10 16 0.00 0.00
7:53 am 07:53 Cloudy 60 15.6 38 3.3 44 44 VRB 3 6 29.52 1000 10 16 0.00 0.00
8:53 am 08:53 Mostly Sunny 64 17.8 36 2.2 35 35 Calm 29.52 1000 10 16 0.00 0.00
9:53 am 09:53 Sunny 67 19.4 35 1.7 31 31 VRB 5 7 29.52 1000 10 16 0.00 0.00
10:53 am 10:53 Mostly Sunny 70 21.1 33 0.6 26 26 E 10 17 29.51 999 10 16 0.00 0.00
11:53 am 11:53 Cloudy 64 17.8 36 2.2 35 35 NNE 14 22 29.53 1000 10 16 0.00 0.00
12:53 pm 12:53 Cloudy 67 19.4 34 1.1 30 30 NE 10 17 29.54 1000 10 16 0.00 0.00
1:53 pm 13:53 Cloudy 67 19.4 37 2.8 33 33 E 13 20 29.55 1001 10 16 0.00 0.00
2:53 pm 14:53 Mostly Sunny 69 20.6 33 0.6 26 26 undefined N/A 29.55 1001 10 16 0.00 0.00
3:53 pm 15:53 Mostly Cloudy 71 21.7 28 -2.2 20 20 N 14 22 29.55 1001 10 16 0.00 0.00
4:53 pm 16:53 Mostly Cloudy 71 21.7 26 -3.3 19 19 NNE 20 31 29.55 1001 10 16 0.00 0.00
5:53 pm 17:53 Mostly Cloudy 69 20.6 32 0 25 25 NNE 16 26 29.58 1002 10 16 0.00 0.00
6:53 pm 18:53 Mostly Cloudy 69 20.6 29 -1.7 22 22 NNE 20 31 29.59 1002 10 16 0.00 0.00
7:53 pm 19:53 Sunny 67 19.4 34 1.1 30 30 NE 18 30 29.62 1003 10 16 0.00 0.00
8:53 pm 20:53 Cloudy 64 17.8 34 1.1 33 33 NNE 10 17 29.65 1004 10 16 0.00 0.00
9:53 pm 21:53 Mostly Clear 61 16.1 34 1.1 36 36 NE 8 13 29.68 1005 10 16 0.00 0.00
10:53 pm 22:53 Partly Cloudy 56 13.3 34 1.1 44 44 NNE 5 7 29.69 1006 10 16 0.00 0.00
11:53 pm 23:53 Mostly Clear 54 12.2 33 0.6 45 45 NNE 6 9 29.72 1006 10 16 0.00 0.00

Powered by AerisWeather